TimeCST,TemperatureF,Dew PointF,Humidity,Sea Level PressureIn,VisibilityMPH,Wind Direction,Wind SpeedMPH,Gust SpeedMPH,PrecipitationIn,Events,Conditions,WindDirDegrees,DateUTC
12:53 AM,28.4,17.6,64,30.05,10.0,SE,18.4,-,N/A,,Clear,130,2012-02-26 06:53:00
1:53 AM,30.0,17.1,59,30.05,10.0,SE,17.3,-,N/A,,Partly Cloudy,140,2012-02-26 07:53:00
2:53 AM,32.0,17.1,54,30.01,10.0,SSE,20.7,29.9,N/A,,Clear,150,2012-02-26 08:53:00
3:53 AM,32.0,18.0,56,29.96,10.0,SSE,21.9,-,N/A,,Clear,160,2012-02-26 09:53:00
4:53 AM,33.1,19.0,56,29.93,10.0,SSE,26.5,38.0,N/A,,Clear,150,2012-02-26 10:53:00
5:53 AM,33.1,19.9,59,29.92,10.0,SSE,21.9,32.2,N/A,,Clear,160,2012-02-26 11:53:00
6:53 AM,33.8,21.2,60,29.87,10.0,South,20.7,28.8,N/A,,Clear,170,2012-02-26 12:53:00
7:53 AM,35.6,24.8,65,29.86,10.0,South,23.0,-,N/A,,Clear,180,2012-02-26 13:53:00
8:53 AM,39.0,26.1,60,29.90,10.0,South,19.6,-,N/A,,Clear,180,2012-02-26 14:53:00
9:53 AM,45.0,27.0,49,29.89,10.0,SSW,23.0,29.9,N/A,,Clear,210,2012-02-26 15:53:00
10:53 AM,48.0,30.0,50,29.90,10.0,SW,23.0,31.1,N/A,,Clear,220,2012-02-26 16:53:00
11:53 AM,51.1,32.0,48,29.91,10.0,SW,23.0,29.9,N/A,,Clear,230,2012-02-26 17:53:00
12:53 PM,54.0,30.9,41,29.91,10.0,SW,20.7,27.6,N/A,,Clear,230,2012-02-26 18:53:00
1:53 PM,55.9,32.0,40,29.91,10.0,WSW,20.7,28.8,N/A,,Clear,250,2012-02-26 19:53:00
2:53 PM,57.0,28.9,34,29.91,10.0,WSW,20.7,26.5,N/A,,Clear,240,2012-02-26 20:53:00
3:53 PM,55.9,28.9,36,29.93,10.0,West,18.4,21.9,N/A,,Clear,280,2012-02-26 21:53:00
4:53 PM,54.0,30.9,41,29.96,10.0,WNW,10.4,-,N/A,,Clear,300,2012-02-26 22:53:00
5:53 PM,46.0,30.9,56,30.01,10.0,NW,12.7,-,N/A,,Clear,310,2012-02-26 23:53:00
6:53 PM,39.9,30.0,68,30.05,10.0,NW,10.4,-,N/A,,Clear,320,2012-02-27 00:53:00
7:53 PM,37.0,28.9,73,30.07,10.0,NNW,4.6,-,N/A,,Clear,330,2012-02-27 01:53:00
8:53 PM,37.0,27.0,67,30.09,10.0,NW,5.8,-,N/A,,Clear,320,2012-02-27 02:53:00
9:53 PM,33.1,27.0,78,30.12,10.0,NNW,6.9,-,N/A,,Clear,340,2012-02-27 03:53:00
10:53 PM,33.1,26.1,75,30.16,10.0,NNW,17.3,-,N/A,,Clear,330,2012-02-27 04:53:00
11:53 PM,32.0,25.0,75,30.19,10.0,NW,11.5,-,N/A,,Clear,310,2012-02-27 05:53:00